Tracking 31027 objects as of 19-Jul-2025
HD Live streaming from Space Station
objects crossing your sky now

STARLINK-31512

Track STARLINK-31512 now!
10-day predictions


NORAD ID: 59500
Int'l Code: 2024-071S
Perigee: 489.2 km
Apogee: 491.2 km
Inclination: 43.0 °
Period: 94.3 minutes
Semi major axis: 6861 km
RCS: Unknown
Launch date: April 13, 2024
Source: United States (US)
Launch site: AIR FORCE EASTERN TEST RANGE (AFETR)
Your satellite tracking list
COSMOS 2251 DEB
Track 1 satellite(s)




NASA's NSSDC Master Catalog

Two Line Element Set (TLE):
1 59500U 24071S   25199.29512873  .00000148  00000-0  14919-4 0  9997
2 59500  43.0007 183.3297 0001444 271.7141  88.3545 15.27577530 72817
Source of the keplerian elements: AFSPC